#timestamp,LO_Frequency,Hit,StdDev 
1680055215.5,286046997.2,P
1680055235.3,286046997.3,P
1680055255.1,286046999.0,N
1680055275.9,286047000.0,N
1680055295.7,286047000.8,N
1680055315.5,286046997.2,N
1680055335.4,286046998.6,N
1680055355.2,286046998.8,N
1680055375.0,286047001.1,N
1680055376.0,286047001.1,N
1680055395.8,286047000.6,N
1680055415.6,286046998.6,N
1680055435.5,286046998.4,N
1680055455.3,286047000.1,N
1680055475.1,286047000.1,N
1680055495.9,286047000.7,N
1680055515.7,286047000.9,N
1680055535.6,286046999.7,N
1680055555.4,286046998.7,N
1680055575.2,286047000.4,N
1680055595.1,286047000.0,N
1680055596.0,286047000.0,N
1680055615.8,286047000.5,N
1680055635.7,286047001.0,N
1680055655.5,286046998.5,N
1680055675.3,286046998.2,N
1680055695.2,286046997.4,N
1680055715.9,286046997.4,N
1680055735.7,286046996.6,N
1680055755.6,286046998.7,N
1680055775.4,286047000.7,N
1680055795.2,286046999.1,N
1680055815.1,286046996.5,N
1680055816.0,286046996.5,N
1680055835.8,286046998.5,N
1680055855.7,286046999.3,N
1680055875.5,286047001.0,N
1680055895.3,286047000.3,N
1680055915.2,286047000.2,N
1680055935.0,286047004.4,Y
1680055935.9,286047004.4,P
1680055955.8,286047002.0,N
1680055975.6,286047003.6,N
1680055995.4,286047002.9,N
1680056015.3,286047003.6,N
1680056035.1,286047004.3,N
1680056055.8,286047000.2,N
1680056075.7,286046998.1,N
1680056095.5,286047001.2,N
1680056115.4,286047001.2,N
1680056135.2,286047002.7,N
1680056155.0,286047002.8,N
1680056155.9,286047002.8,N
1680056175.8,286047002.3,N
1680056195.6,286047002.0,N
1680056215.5,286047003.6,N
1680056235.3,286047003.5,N
1680056255.1,286047003.2,N
1680056275.9,286047003.5,N
1680056295.7,286047000.5,N
1680056315.5,286046998.2,N
1680056335.4,286047000.5,N
1680056355.2,286046999.9,N
1680056375.1,286046999.9,N
1680056376.0,286046999.9,N
1680056395.8,286047000.1,N
1680056415.6,286047002.0,N
1680056435.5,286047004.4,N
1680056455.3,286047002.8,N
1680056475.1,286047002.2,N
1680056495.9,286047001.9,N
1680056515.7,286047001.5,N
1680056535.6,286047004.0,N
1680056555.4,286047003.8,N
1680056575.2,286047004.1,N
1680056595.1,286047004.4,N
1680056596.0,286047004.4,N
1680056615.8,286047003.9,N
1680056635.6,286047001.3,N
1680056655.5,286047002.1,N
1680056675.3,286047000.2,N
1680056695.2,286047000.2,N
1680056715.9,286047000.2,N
1680056735.7,286047000.6,N
1680056755.6,286047001.1,N
1680056775.4,286046998.4,N
1680056795.2,286046999.1,N
1680056815.1,286046999.5,N
1680056816.0,286046999.5,N
1680056835.8,286046999.1,N
1680056855.7,286047000.8,N
1680056875.5,286046998.7,N
1680056895.3,286046998.7,N
1680056915.2,286047000.8,N
1680056935.0,286046999.0,N
1680056935.9,286046999.0,N
1680056955.8,286046999.5,N
1680056975.6,286046998.9,N
1680056995.4,286046996.7,N
1680057015.3,286046999.0,N
1680057035.1,286046998.4,N
1680057055.8,286046997.4,N
1680057075.7,286046997.3,N
1680057095.5,286046997.4,N
1680057115.4,286046997.9,N
1680057135.2,286046997.8,N
1680057155.0,286046997.9,N
1680057155.9,286046997.9,N
1680057175.8,286046997.7,N
1680057195.6,286046995.2,Y
1680057215.5,286046997.7,P
1680057235.3,286046995.9,P
1680057255.1,286046993.3,P
1680057275.9,286046994.5,N
1680057295.7,286046993.9,N
1680057315.5,286046993.6,Y
1680057335.4,286046999.5,P
1680057355.2,286046998.3,N
1680057375.1,286046998.5,N
1680057376.0,286046998.5,N
1680057395.8,286046998.1,N
1680057415.6,286046998.3,N
1680057435.5,286046999.3,N
1680057455.3,286046997.2,N
1680057475.1,286046999.1,N
1680057495.9,286046997.1,N
1680057515.7,286046997.6,N
1680057535.6,286046997.9,N
1680057555.4,286046997.5,N
1680057575.2,286046996.8,Y
1680057595.1,286047000.4,P
1680057596.0,286047000.4,N
1680057615.8,286047000.4,N
1680057635.7,286047000.8,N
1680057655.5,286046998.4,N
1680057675.3,286046998.8,N
1680057695.2,286046999.3,N
1680057715.9,286046999.2,N
1680057735.7,286046999.0,N
1680057755.6,286046999.2,N
1680057775.4,286046996.5,Y
1680057795.3,286046999.5,P
1680057815.1,286046996.7,P
1680057816.0,286046996.7,N
1680057835.8,286046999.5,N
1680057855.7,286046999.2,N
1680057875.5,286046997.1,N
1680057895.3,286046997.0,N
1680057915.2,286046997.0,N
1680057935.0,286046999.1,N
1680057935.9,286046999.1,N
1680057955.8,286046996.6,N
1680057975.6,286046996.9,N
1680057995.4,286046996.8,N
1680058015.3,286046996.8,N
1680058035.1,286046997.7,N
1680058055.8,286046997.2,N
1680058075.7,286046996.7,N
1680058095.5,286046996.7,N
1680058115.4,286046997.1,N
1680058135.2,286046997.3,N
1680058155.0,286046997.1,N
1680058155.9,286046997.1,N
1680058175.8,286046997.1,N
1680058195.6,286046997.3,N
1680058215.4,286046995.7,Y
1680058235.3,286046998.6,P
1680058255.1,286046998.8,N
1680058275.9,286046998.8,N
1680058295.7,286046999.3,N
1680058315.5,286047000.7,N
1680058335.4,286046999.3,N
1680058355.2,286046999.2,N
1680058375.0,286046999.1,N
1680058375.9,286046999.1,N
1680058395.8,286046998.9,N
1680058415.6,286046998.7,N
1680058435.5,286046998.4,N
1680058455.3,286046996.6,Y
1680058475.1,286046998.1,P
1680058495.9,286046998.5,P
1680058515.1,286047001.0,N
1680058535.9,286046998.1,N
1680058555.7,286047000.4,N
1680058575.6,286047000.3,N
1680058595.4,286047000.3,N
1680058615.2,286047000.5,N
1680058635.1,286047000.1,N
1680058636.0,286047000.1,N
1680058655.8,286047002.3,N
1680058675.6,286046999.7,N
1680058695.5,286047002.7,N
1680058715.3,286046998.2,N
1680058735.2,286046999.4,N
1680058755.9,286046999.2,N
1680058775.7,286046999.3,N
1680058795.6,286046998.4,N
